Hourly Data Report for April 20, 2021

NANAIMO A
BRITISH COLUMBIA
Current Station Operator: NAVCAN

49°03'16.000" N
123°52'12.000" W
28.00 m
1025365
YCD

Download Data

Hourly Data (April 2021)
Hourly Data Report for April 20, 2021
TIME
LST
Temp Definition
°C
Dew Point Definition
°C
Rel Hum Definition
%
Precip. Amount Definition
mm

Wind Dir Definition
10's deg

Wind Spd Definition
km/h
Visibility Definition
km
Stn Press Definition
kPa
Hmdx Definition


Wind Chill Definition


Weather Definition


00:00 11.8 0.2 45 LegendMM 26 15 LegendMM 101.91     LegendNANA
01:00 10.7 0.2 48 LegendMM 26 7 LegendMM 101.94     LegendNANA
02:00 8.2 0.4 58 LegendMM 13 1 LegendMM 101.94     LegendNANA
03:00 7.3 0.4 61 LegendMM 18 4 LegendMM 101.95     LegendNANA
04:00 4.6 0.2 73 LegendMM 21 2 LegendMM 102.00     LegendNANA
05:00 5.1 1.0 75 LegendMM 22 3 LegendMM 102.00     LegendNANA
06:00 5.8 1.9 76 LegendMM 25 4 LegendMM 102.04     LegendNANA
07:00 11.4 3.8 59 LegendMM 27 2 LegendMM 102.05     LegendNANA
08:00 14.1 5.3 55 LegendMM 3 7 LegendMM 102.06     LegendNANA
09:00 15.6 6.0 53 LegendMM 35 8 LegendMM 102.06     LegendNANA
10:00 16.8 6.5 50 LegendMM 1 12 LegendMM 102.03     LegendNANA
11:00 17.7 6.9 49 LegendMM 36 13 LegendMM 102.00     LegendNANA
12:00 18.1 6.4 46 LegendMM 36 13 LegendMM 101.96     LegendNANA
13:00 18.7 7.1 46 LegendMM 36 5 LegendMM 101.91     LegendNANA
14:00 19.9 3.3 33 LegendMM 1 10 LegendMM 101.86     LegendNANA
15:00 20.2 2.5 30 LegendMM 2 11 LegendMM 101.79     LegendNANA
16:00 20.2 3.1 32 LegendMM 2 9 LegendMM 101.72     LegendNANA
17:00 19.7 2.3 31 LegendMM 1 8 LegendMM 101.68     LegendNANA
18:00 19.0 4.5 38 LegendMM 36 7 LegendMM 101.62     LegendNANA
19:00 16.6 2.7 39 LegendMM 36 3 LegendMM 101.58     LegendNANA
20:00 13.8 4.2 52 LegendMM 24 6 LegendMM 101.59     LegendNANA
21:00 13.1 1.6 45 LegendMM 25 13 LegendMM 101.59     LegendNANA
22:00 11.7 1.4 49 LegendMM 26 9 LegendMM 101.60     LegendNANA
23:00 12.3 1.7 48 LegendMM 27 15 LegendMM 101.61     LegendNANA

Notes on Data Quality.

Legend

  • E = Estimated
  • M = Missing
  • NA = Not Available*
  • [empty] = Indicates an unobserved value
Date modified: